User: anonymous   Login
Location: Pacheco
(37.9835°N, 122.0752°W)
Time: 21:22:32
(UTC+00:00)
Language:

Cosmos 1461 - Orbit

View from above orbital plane
View from above orbital plane
View from above satellite
View from above satellite

Ground track
Ground track

The orbit data is extracted from the following two-line orbital elements,

1 14064U 83044A   24165.58484015  .00010081  00000-0  62784-3 0  9997
2 14064  64.9969 268.5086 0059487 115.5143 245.2148 15.08536637105396
Epoch (UTC): 13 June 2024 14:02:10
Eccentricity: 0.0059487
inclination: 64.9969°
perigee height: 499 km
apogee height: 582 km
right ascension of ascending node: 268.5086°
argument of perigee: 115.5143°
revolutions per day: 15.08536637
mean anomaly at epoch: 245.2148°
orbit number at epoch: 10539

The dashed part of the orbit path shows where the satellite is in the earth's shadow,  

DLR